Home   Weather   Québec   Past weeks

Flag for Canada Past Weather in Québec, Quebec, Canada — Yesterday and Last 2 Weeks

Now
54 °F

Sprinkles. Partly sunny.


Feels Like: 52 °F
Forecast: N/A
Wind: 6 mph from West

Location: Quebec Weather Station

Current Time: Apr 23, 2017 at 7:35:16 pm

Latest Report: Apr 23, 2017 at 7:00 pm


Visibility: 20 mi

Pressure: 29.86 "Hg

Humidity: 63%

Dew Point: 41 °F

Location of QuébecLocation

Past Weather in Québec — Graph

°F

Québec Temperature Yesterday

Maximum temperature yesterday: 41 °F (at 4:00 pm)
Minimum temperature yesterday: 36 °F (at 12:00 am)
Average temperature yesterday: 38 °F

High & Low Weather Summary for the Past Weeks

 TemperatureHumidityPressure
High66 °F (Apr 10, 3:00 pm)100% (Apr 11, 12:00 am)30.55 "Hg (Apr 11, 12:00 am)
Low28 °F (Apr 9, 6:00 am)27% (Apr 15, 4:00 pm)29.66 "Hg (Apr 16, 4:00 am)
Average40 °F80%30.07 "Hg
* Reported Apr 8 6:00 pm — Apr 23 6:00 pm, Québec, Weather by CustomWeather, © 2017

Note: Actual official high and low records may vary slightly from our data, if they occured in-between our weather recording intervals... More about our weather records

Advertising

Québec Weather History for the Previous 24 Hours

Scroll right to see more
 ConditionsComfort  
Time TempWeatherWind HumidityBarometerVisibility
6:00 pm
Sun, Apr 23
55 °FOvercast.8 mph59%29.86 "Hg30 mi
5:00 pm55 °FPartly sunny.14 mph59%29.86 "Hg30 mi
4:00 pm55 °FPartly sunny.14 mph59%29.90 "Hg30 mi
3:02 pm54 °FOvercast.14 mph63%29.93 "Hg30 mi
2:00 pm52 °FPartly sunny.14 mph62%29.97 "Hg30 mi
1:00 pm50 °FPartly sunny.16 mph62%29.98 "Hg30 mi
12:00 pm48 °FPartly sunny.16 mph71%30.01 "Hg30 mi
11:00 am45 °FBroken clouds.10 mph81%30.03 "Hg30 mi
10:00 am43 °FBroken clouds.8 mph87%30.05 "Hg30 mi
9:11 am37 °FScattered clouds.5 mph100%30.05 "Hg15 mi
9:03 am36 °FFog.5 mph100%30.06 "Hg3 mi
8:00 am34 °FFog.No wind100%30.04 "Hg0 mi
7:33 am34 °FFog.No wind93%30.05 "Hg0 mi
7:00 am32 °FIce fog.2 mph93%30.05 "Hg0 mi
6:10 am32 °FIce fog.2 mph100%30.03 "Hg1 mi
6:00 am32 °FIce fog.3 mph100%30.02 "Hg1 mi
5:46 am32 °FFog.5 mph100%30.02 "Hg1 mi
5:29 am32 °FFog.5 mph100%30.02 "Hg0 mi
5:00 am34 °FFog.3 mph100%30.02 "Hg0 mi
4:00 am36 °FFog.2 mph100%30.01 "Hg0 mi
3:33 am36 °FFog.3 mph100%30.01 "Hg0 mi
3:00 am37 °FFog.5 mph93%30.01 "Hg0 mi
2:37 am37 °FFog.5 mph93%30.00 "Hg1 mi
2:00 am37 °FFog.3 mph100%30.01 "Hg1 mi
1:15 am39 °FFog.2 mph93%30.00 "Hg5 mi
1:00 am39 °FFog.2 mph93%30.00 "Hg5 mi
12:49 am39 °FFog.3 mph93%29.99 "Hg5 mi
12:00 am39 °FFog.5 mph93%29.99 "Hg5 mi
11:36 pm
Sat, Apr 22
39 °FFog.5 mph93%29.99 "Hg5 mi
10:00 pm39 °FFog.3 mph93%29.98 "Hg5 mi
9:31 pm39 °FFog.3 mph100%29.98 "Hg6 mi
9:00 pm39 °FLight rain. Low clouds.3 mph100%29.98 "Hg10 mi
8:00 pm41 °FLight rain. Mostly cloudy.5 mph93%29.96 "Hg10 mi
7:24 pm41 °FLight rain. Cloudy.3 mph93%29.96 "Hg12 mi
Weather by CustomWeather, © 2017

See weather overviewHow to use our weather pages